Location: Little Maitland River
(43.8022°N, 81.1549°W)
Time: 13:58:48
(UTC+00:00)

Meteor 2-20 - Pass Details

Date: 09 December 2025
Orbit: 937 x 959 km, 82.5° (Epoch: 19 January)

Event Time Altitude Azimuth Distance (km) Brightness Sun altitude
Rises 11:07:33 0° 348° (NNW) 3,630 7.2 -17.2°
Reaches altitude 10° 11:10:04 10° 346° (NNW) 2,678 6.5 -16.8°
Maximum altitude 11:16:07 65° 266° (W) 1,031 4.4 -15.8°
Drops below altitude 10° 11:22:05 10° 186° (S) 2,647 6.9 -14.7°
Sets 11:24:34 0° 183° (S) 3,585 7.7 -14.3°
